This is the latest recevied weather packets stored in our database for station/object KB4KY. If no packets are shown the sender has not sent any weather packets the latest 10 day(s).
| Time | Temp. | Humidity | Pressure | Rain* | Wind** | Luminosity | Snow |
|---|---|---|---|---|---|---|---|
| 1777744099 | 12.78° C | 64% | 1017.3 hPa | 0 mm | - | - | - |
| 1777743799 | 12.78° C | 61% | 1017.4 hPa | 0 mm | - | - | - |
| 1777743499 | 12.78° C | 62% | 1017.6 hPa | 0 mm | - | - | - |
| 1777743198 | 12.78° C | 62% | 1017.5 hPa | 0 mm | - | - | - |
| 1777742898 | 12.78° C | 62% | 1017.5 hPa | 0 mm | - | - | - |
| 1777742596 | 12.78° C | 60% | 1017.6 hPa | 0 mm | - | - | - |
| 1777742297 | 13.33° C | 58% | 1017.6 hPa | 0 mm | - | - | - |
| 1777741996 | 13.33° C | 57% | 1017.6 hPa | 0 mm | - | - | - |
| 1777741696 | 13.89° C | 59% | 1017.6 hPa | 0 mm | - | - | - |
| 1777741395 | 13.89° C | 57% | 1017.6 hPa | 0 mm | - | - | - |
| 1777741096 | 13.33° C | 58% | 1017.6 hPa | 0 mm | - | - | - |
| 1777740795 | 13.89° C | 57% | 1017.7 hPa | 0 mm | - | - | - |
| 1777740494 | 13.89° C | 57% | 1017.8 hPa | 0 mm | - | - | - |
| 1777740199 | 14.44° C | 55% | 1017.7 hPa | 0 mm | - | - | - |
| 1777739894 | 13.89° C | 60% | 1017.7 hPa | 0 mm | - | - | - |
| 1777739593 | 13.33° C | 60% | 1017.8 hPa | 0 mm | - | - | - |
| 1777739294 | 13.33° C | 58% | 1017.9 hPa | 0 mm | - | - | - |
| 1777738992 | 13.33° C | 60% | 1018 hPa | 0 mm | - | - | - |
| 1777738693 | 13.33° C | 58% | 1018.1 hPa | 0 mm | - | - | - |
| 1777738395 | 13.33° C | 59% | 1018.2 hPa | 0 mm | - | - | - |
| 1777738091 | 12.78° C | 60% | 1018.1 hPa | 0 mm | - | - | - |
| 1777737794 | 12.78° C | 61% | 1018.2 hPa | 0 mm | - | - | - |
| 1777737492 | 13.33° C | 59% | 1018.1 hPa | 0 mm | - | - | - |
| 1777737196 | 13.33° C | 66% | 1018.2 hPa | 0 mm | - | - | - |
| 1777736892 | 12.78° C | 62% | 1018.3 hPa | 0 mm | - | - | - |
* Rain latest hour (hover to see other rain measurements)
** Current wind speed in m/s (hover to see current wind gust speed)